#timestamp,LO_Frequency,Hit,StdDev 
1509890415.3,286046995.5,N
1509890435.1,286046994.9,N
1509890455.9,286047005.1,N
1509890475.7,286047000.5,N
1509890495.5,286046995.8,N
1509890515.4,286046994.7,N
1509890535.2,286046991.3,N
1509890555.0,286046994.7,N
1509890555.9,286046994.7,N
1509890575.8,286046994.9,N
1509890595.6,286046997.9,N
1509890615.4,286047000.0,N
1509890635.3,286046996.2,N
1509890655.1,286046995.5,N
1509890656.0,286046995.5,N
1509890675.8,286046993.5,N
1509890695.7,286046995.2,N
1509890715.5,286046997.8,N
1509890735.3,286046996.6,N
1509890755.2,286047001.8,N
1509890775.9,286047000.3,N
1509890795.7,286047000.1,N
1509890815.6,286046998.2,N
1509890835.4,286047001.2,N
1509890855.2,286046999.1,N
1509890875.1,286047008.9,N
1509890876.0,286047008.9,N
1509890895.8,286047008.1,N
1509890915.6,286047008.3,N
1509890935.5,286047015.6,Y
1509890955.3,286047009.3,P
1509890975.2,286047008.0,N
1509890995.9,286047008.4,N
1509891015.7,286047007.5,N
1509891035.5,286047006.9,N
1509891055.4,286047008.9,N
1509891075.2,286047008.5,N
1509891095.0,286047007.8,N
1509891096.0,286047007.8,N
1509891115.8,286047005.7,N
1509891135.6,286047001.8,N
1509891155.5,286047007.5,N
1509891175.3,286047004.5,N
1509891195.1,286047007.0,N
1509891215.9,286047008.7,Y
1509891235.7,286047001.5,P
1509891255.5,286047000.2,N
1509891275.4,286047000.9,N
1509891295.2,286046996.2,N
1509891315.0,286046996.9,N
1509891315.9,286046996.9,N
1509891335.8,286046999.3,N
1509891355.6,286047002.0,N
1509891375.4,286047003.0,N
1509891395.3,286047002.3,N
1509891415.1,286047000.2,N
1509891416.0,286047000.2,N
1509891435.8,286047001.9,N
1509891455.7,286047001.9,N
1509891475.5,286047005.0,N
1509891495.3,286047009.0,Y
1509891515.2,286047008.3,P
1509891535.9,286047013.6,P
1509891555.7,286047012.2,N
1509891575.6,286047013.0,N
1509891595.4,286047015.2,Y
1509891615.2,286047006.3,P
1509891635.1,286047009.4,P
1509891636.0,286047009.4,P
1509891655.8,286047009.3,Y
1509891675.7,286047004.7,P
1509891695.5,286047006.9,P
1509891715.3,286047004.7,N
1509891735.2,286047005.0,N
1509891755.9,286047008.1,Y
1509891775.7,286046999.8,P
1509891795.6,286047002.1,N
1509891815.4,286047010.8,P
1509891835.2,286047010.0,N
1509891855.1,286047006.9,N
1509891856.0,286047006.9,N
1509891875.8,286047010.2,N
1509891895.6,286047004.9,N
1509891915.5,286047003.3,N
1509891935.3,286047008.1,N
1509891955.1,286047007.3,N
1509891975.9,286047006.6,N
1509891995.7,286047004.1,N
1509892015.5,286047004.9,N
1509892035.4,286047001.5,N
1509892055.2,286047005.4,N
1509892075.0,286047004.8,N
1509892075.9,286047004.8,N
1509892095.8,286047005.3,N
1509892115.6,286047000.1,N
1509892135.4,286047009.1,Y
1509892155.3,286047003.7,P
1509892175.1,286047000.5,N
1509892195.8,286046999.7,N
1509892215.7,286047001.3,N
1509892235.5,286047002.5,N
1509892255.3,286047002.5,N
1509892275.2,286047007.4,Y
1509892295.0,286047006.6,P
1509892295.9,286047006.6,P
1509892315.8,286046998.8,N
1509892335.6,286047003.8,N
1509892355.4,286047001.1,N
1509892375.3,286046999.3,N
1509892395.1,286046998.6,N
1509892396.0,286046998.6,N
1509892415.8,286046993.9,N
1509892435.7,286046989.3,N
1509892455.5,286046986.5,N
1509892475.3,286046988.5,N
1509892495.2,286046988.0,N
1509892515.9,286046982.8,N
1509892535.7,286046985.0,N
1509892555.6,286046983.6,N
1509892575.4,286046981.0,N
1509892595.2,286046981.1,N
1509892615.1,286046979.7,N
1509892616.0,286046979.7,N
1509892635.8,286046982.0,N
1509892655.6,286046975.8,N
1509892675.5,286046981.0,N
1509892695.3,286046982.2,N
1509892715.1,286046983.4,N
1509892735.9,286046980.7,N
1509892755.7,286046981.4,N
1509892775.5,286046983.1,N
1509892795.4,286046984.4,N
1509892815.2,286046982.6,N
1509892835.0,286046980.9,N
1509892835.9,286046980.9,N
1509892855.8,286046982.6,N
1509892875.6,286046979.4,N
1509892895.4,286046983.4,N
1509892915.3,286046981.9,Y
1509892935.1,286046994.1,P
1509892955.8,286046999.3,N
1509892975.7,286047002.1,N
1509892995.5,286047000.4,N
1509893015.3,286046999.2,N
1509893035.2,286046998.9,N
1509893055.9,286046997.9,N
1509893075.7,286046991.3,N
1509893095.6,286046991.9,N
1509893115.4,286046996.1,N
1509893135.2,286046999.8,N
1509893155.1,286046999.9,N
1509893156.0,286046999.9,N
1509893175.8,286047001.0,N
1509893195.6,286046998.4,N
1509893215.5,286046994.7,N
1509893235.3,286046997.3,N
1509893255.1,286046995.7,N
1509893275.9,286046997.9,N
1509893295.7,286046995.9,N
1509893315.5,286046998.7,N
1509893335.4,286046999.0,N
1509893355.2,286046994.2,N
1509893375.0,286046993.4,N
1509893375.9,286046993.4,N
1509893395.8,286046996.1,N
1509893415.6,286046995.7,N
1509893435.4,286046998.0,N
1509893455.3,286046998.8,N
1509893475.1,286046994.7,N
1509893495.8,286046994.7,N
1509893515.7,286046995.0,N
1509893535.5,286046996.9,N
1509893555.3,286046997.5,N
1509893575.2,286046993.7,N
1509893595.9,286046998.8,N
1509893615.7,286046997.9,N
1509893635.6,286046996.6,N
1509893655.4,286046997.3,N
1509893675.2,286047001.9,N
1509893695.1,286047002.7,N
1509893696.0,286047002.7,N
1509893715.8,286046998.2,N
1509893735.6,286046996.8,N
1509893755.5,286046995.5,N
1509893775.3,286046996.2,N
1509893795.1,286046992.7,Y
1509893815.9,286046993.8,P
1509893835.7,286046992.0,P
1509893855.5,286046990.4,P
1509893875.4,286046993.0,N
1509893895.2,286046994.8,N
1509893915.1,286046992.8,Y
1509893916.0,286046992.8,P
1509893935.8,286047000.1,N
1509893955.6,286047003.7,N
1509893975.5,286047009.8,N
1509893995.3,286047008.2,N
